GEFSSE_con_prob3kmehi_060.txt.gz
EHI
17 28 24 7 0 0 1 4 9 10 11 12 9 4 2 1 0 0 0 0 0 0 0 0 0 0 0 0 0 0 0 0 0 0 0 0 0 0 0 0 0 0 0
24 36 29 8 0 0 1 5 9 12 14 17 16 10 4 2 1 0 0 0 0 0 0 0 0 0 0 0 0 0 0 0 0 0 0 0 0 0 0 0 0 0 0
28 39 29 8 1 0 3 7 11 15 19 24 24 16 7 3 1 0 0 0 0 0 0 0 0 0 0 0 0 0 0 0 0 0 0 0 0 0 0 0 0 0 0
25 33 27 11 2 0 4 9 14 16 20 25 24 16 7 3 1 0 0 0 0 0 0 0 0 0 0 0 0 0 0 0 0 0 0 0 0 0 0 0 0 0 0
20 29 31 17 4 0 3 9 14 16 16 17 16 11 5 2 0 0 0 0 0 0 0 0 0 0 0 0 0 0 0 0 0 0 0 0 0 0 0 0 0 0 0
16 25 33 23 7 0 1 5 10 12 10 8 7 5 2 0 0 0 0 0 0 0 0 0 0 0 0 0 0 0 0 0 0 0 0 0 0 0 0 0 0 0 0
10 20 32 27 10 3 2 3 6 8 8 6 5 4 2 1 1 1 1 1 0 0 0 0 0 0 0 0 0 0 0 0 0 0 0 0 0 0 0 0 0 0 0
5 16 29 25 11 6 4 4 6 8 9 9 9 8 5 3 2 2 2 1 0 0 0 0 0 0 0 0 0 0 0 0 0 0 0 0 0 0 0 0 0 0 0
2 10 18 15 9 7 5 6 9 11 11 12 13 12 9 6 4 3 1 0 0 0 0 0 0 0 0 0 0 0 0 0 0 0 0 2 3 2 0 0 0 0 0
1 4 7 7 5 5 5 7 10 12 12 12 13 13 11 7 4 2 1 0 0 0 0 0 0 0 0 0 0 0 0 0 0 0 1 5 8 4 0 0 0 0 0
8 6 5 5 6 5 5 7 10 13 14 14 13 15 13 8 4 2 3 3 2 0 0 0 0 0 0 0 0 0 0 0 0 0 5 13 15 6 0 0 0 0 0
27 19 14 15 17 14 11 12 14 20 24 23 21 24 23 17 10 6 7 8 4 1 0 0 0 0 0 0 1 1 0 0 0 0 11 26 23 7 1 0 0 0 0
45 35 28 34 38 33 27 23 24 31 37 36 34 36 38 34 25 17 15 12 7 4 3 3 3 1 0 1 2 2 1 1 0 1 17 35 28 9 1 0 0 0 1
51 42 39 48 55 51 43 37 35 40 45 46 46 46 48 49 39 31 28 20 14 13 12 10 6 2 1 1 2 2 2 1 1 3 19 33 27 9 2 0 0 1 2
47 43 45 54 60 58 52 45 42 42 43 45 49 49 52 54 47 40 39 30 21 18 18 14 7 3 2 2 1 0 1 1 2 4 14 23 18 7 2 0 0 1 2
48 47 51 56 58 57 52 46 42 39 35 37 42 45 47 48 47 45 43 35 25 18 14 11 6 3 3 3 1 0 0 0 1 3 6 8 7 4 1 0 0 1 2
51 53 53 52 51 51 48 43 38 32 27 27 32 35 36 38 42 45 42 34 27 18 11 9 7 6 5 5 3 2 1 1 1 1 1 2 1 1 0 0 1 1 1
48 50 48 42 41 42 43 39 31 24 20 21 24 26 28 31 35 39 37 31 25 18 12 10 9 8 7 7 5 3 3 1 0 0 1 2 2 2 3 2 2 2 1
36 36 35 32 31 31 31 28 22 16 15 15 18 21 24 26 27 28 27 23 20 19 16 12 10 9 8 7 5 4 2 1 0 0 1 2 3 4 6 4 2 1 1
24 23 23 23 22 21 19 16 13 11 10 10 13 16 17 18 17 15 14 14 15 19 18 15 11 9 8 7 4 2 1 0 0 0 0 1 1 3 4 3 2 2 2
17 17 17 16 15 14 13 11 9 7 6 6 7 10 10 10 9 6 5 7 11 15 16 14 10 8 6 5 2 0 0 0 0 0 0 0 0 0 1 1 1 3 4
11 11 11 10 9 9 9 7 5 3 3 4 4 5 6 6 5 4 4 6 9 13 13 11 9 7 3 2 1 0 0 0 0 0 0 0 0 0 0 0 1 2 3
5 4 4 4 4 3 3 2 1 1 1 2 2 3 3 3 4 4 5 6 8 11 11 10 9 6 3 1 0 0 0 0 0 0 0 0 0 0 0 0 0 1 1
2 1 1 1 1 0 0 0 0 0 0 1 1 1 1 1 1 3 3 4 6 8 9 9 7 5 3 1 0 0 0 0 0 0 0 0 0 0 0 0 0 0 0
1 0 0 0 0 0 0 0 0 0 0 0 0 0 0 0 0 1 1 2 3 4 4 5 5 5 4 3 2 1 0 0 0 0 0 0 0 0 0 0 0 0 0
0 0 0 0 0 0 0 0 0 0 0 0 0 0 0 0 0 0 1 2 1 1 1 2 4 5 6 6 4 1 0 0 0 0 0 0 0 0 0 0 0 0 0

GEFSSE_con_prob3kmehi_066.txt.gz
EHI
56 51 54 49 29 12 4 1 0 0 0 0 0 0 0 0 0 0 0 0 0 0 0 0 0 0 0 0 0 0 0 0 0 0 0 0 0 0 0 0 0 0 0
58 51 52 49 30 14 6 3 1 0 0 0 0 0 0 0 0 0 0 0 0 0 0 0 0 0 0 0 0 0 0 0 0 0 0 0 0 0 0 0 0 0 0
53 41 40 42 29 15 9 6 3 0 0 0 0 0 0 0 0 0 0 0 0 0 0 0 0 0 0 0 0 0 0 0 0 0 0 0 0 0 0 0 0 0 0
37 26 26 33 26 14 11 9 6 2 1 1 1 0 0 0 0 0 0 0 0 0 0 0 0 0 0 0 0 0 0 0 0 0 0 0 0 0 0 0 0 0 0
27 20 23 28 23 13 10 10 9 7 5 5 3 1 0 0 0 0 0 0 0 0 0 0 0 0 0 0 0 0 0 0 1 1 1 0 0 0 0 0 0 0 0
29 25 25 26 21 12 8 9 10 10 10 10 8 4 2 1 0 1 1 0 0 0 0 0 0 0 0 0 0 0 0 0 1 1 2 4 3 1 0 0 0 0 0
38 33 28 26 21 12 6 6 8 9 10 11 10 7 5 3 2 3 4 3 2 1 0 0 0 0 0 0 0 0 0 0 0 0 6 14 12 6 2 1 0 0 0
52 45 34 27 22 14 7 4 4 5 6 8 8 7 6 5 5 7 9 10 10 7 3 1 1 0 0 0 0 0 0 0 0 0 10 26 28 19 10 4 0 0 0
67 57 38 27 22 15 8 4 2 1 3 4 5 5 4 4 6 10 15 19 17 13 9 6 4 2 1 0 0 0 0 0 0 0 10 33 46 40 24 10 2 0 0
73 61 40 27 24 16 8 4 2 1 1 2 3 4 4 4 6 9 17 23 23 19 15 12 8 5 3 1 0 0 0 0 0 0 8 35 62 61 40 20 7 2 0
66 61 46 38 31 16 11 12 9 3 2 2 4 7 9 7 5 10 23 37 40 34 26 20 17 13 8 3 1 2 2 1 0 0 11 43 76 77 55 32 15 5 1
52 51 52 56 46 23 23 30 19 11 15 11 11 19 19 12 7 14 40 62 66 55 42 34 30 23 13 5 6 10 8 3 1 0 17 57 88 87 66 43 25 12 5
39 37 50 70 64 42 41 45 30 26 38 35 30 36 36 28 20 27 56 79 80 69 55 45 38 28 15 8 14 21 14 4 1 1 23 65 92 89 73 52 33 19 10
39 34 48 75 78 65 60 57 45 43 53 56 55 57 59 55 44 44 65 82 82 73 59 49 43 33 20 13 19 23 16 7 3 4 25 62 84 82 71 54 37 23 14
58 51 58 78 86 80 74 70 62 60 63 67 72 76 77 75 65 59 68 79 79 72 63 54 49 45 35 25 21 21 17 11 7 10 26 51 66 66 61 49 34 21 14
78 73 72 80 86 84 80 73 69 70 71 71 76 80 80 79 75 68 68 71 70 67 64 60 56 56 49 35 23 19 19 15 13 15 27 43 51 50 49 44 33 21 14
87 84 80 79 81 83 78 71 67 67 67 67 68 71 72 71 69 65 60 59 61 61 62 61 59 56 47 31 19 14 16 18 17 19 30 41 40 35 35 36 32 23 17
88 86 82 78 78 77 73 68 62 57 56 57 56 56 58 58 55 50 46 47 53 54 52 51 47 41 32 21 12 9 13 18 18 18 25 32 29 24 22 24 25 22 18
78 80 78 74 71 66 61 58 54 50 49 48 45 42 43 43 40 36 33 36 41 42 38 33 29 26 20 14 9 7 12 16 13 11 13 17 18 18 16 16 16 15 12
61 64 64 63 60 56 51 50 48 45 43 39 35 32 31 30 28 25 25 27 28 28 26 21 17 16 15 12 8 6 8 8 6 5 5 7 10 11 12 17 20 14 7
43 44 45 46 47 47 46 46 44 41 36 30 25 23 20 17 17 17 18 21 21 19 17 14 12 11 11 10 8 4 2 2 2 3 3 4 3 4 9 20 27 18 8
23 24 25 29 32 35 39 40 37 35 30 22 18 17 13 8 8 10 12 13 13 12 10 9 8 5 5 6 6 3 1 1 2 1 1 2 1 2 8 18 25 20 11
7 8 12 18 21 24 27 28 26 25 22 17 15 15 11 6 5 7 7 7 7 8 8 7 6 4 2 2 3 1 0 1 1 0 0 0 0 1 4 9 16 17 13
2 5 12 19 21 20 19 19 19 17 13 12 13 14 11 7 5 5 5 5 5 5 5 6 6 6 4 3 2 1 1 1 1 0 0 0 0 0 1 3 9 13 12
5 8 17 27 30 27 23 19 16 13 10 9 10 11 9 7 4 3 3 4 3 2 2 3 4 6 6 4 2 2 2 2 1 0 0 0 0 0 0 1 4 7 8
9 10 19 32 38 37 31 22 16 13 11 9 8 8 8 6 3 1 2 3 2 0 0 1 2 3 4 3 2 3 2 1 1 0 0 0 0 0 0 0 1 4 5

GEFSSE_con_prob3kmehi_072.txt.gz
EHI
10 27 56 75 75 64 47 31 21 14 8 6 3 1 0 0 0 1 2 2 1 0 0 0 0 0 0 0 0 0 0 1 1 1 1 0 0 0 0 0 0 0 0
21 33 58 77 80 70 50 33 21 12 7 5 3 1 0 0 0 0 1 1 0 0 0 0 0 0 0 0 0 0 0 1 2 2 1 0 0 0 0 0 0 0 0
40 42 57 77 84 75 55 36 21 11 6 5 2 0 0 0 0 0 0 0 0 0 0 0 0 0 0 0 0 0 0 1 1 1 1 0 0 0 0 0 0 0 0
50 45 54 76 87 80 62 40 23 12 6 3 1 0 0 0 0 0 0 0 0 0 0 0 0 0 0 0 0 0 0 0 0 0 0 0 0 0 0 0 0 0 0
43 43 56 78 90 85 72 50 30 16 7 4 1 0 0 0 0 0 0 0 0 0 0 0 0 0 0 0 0 0 0 0 0 0 0 0 0 1 2 1 0 0 0
38 41 57 80 91 88 79 62 41 24 13 7 3 1 0 0 0 0 0 0 0 0 0 0 0 0 0 0 0 0 0 0 0 0 0 0 1 2 3 2 1 0 0
46 45 56 78 89 87 81 69 50 34 23 14 8 4 1 0 0 1 1 0 0 0 0 0 0 0 0 0 0 0 0 0 0 0 0 0 2 5 7 6 4 1 0
50 48 54 69 80 81 77 67 52 40 31 24 16 9 4 2 2 3 3 1 0 0 0 0 0 0 0 0 0 0 0 0 0 0 0 1 3 9 13 12 7 3 1
36 38 43 52 60 64 63 57 46 37 31 26 20 14 9 7 5 7 8 5 2 1 1 1 1 0 0 0 0 0 0 0 0 0 0 1 4 10 14 14 10 5 3
20 23 27 33 38 41 42 40 35 30 27 23 18 17 15 10 6 7 10 8 6 5 6 6 5 3 2 1 0 0 0 0 0 0 0 1 4 9 14 14 11 7 5
16 14 16 21 23 25 25 24 23 21 19 15 14 16 14 8 3 3 6 8 11 14 13 14 15 12 8 3 0 0 0 0 0 0 0 1 6 14 20 21 16 10 6
15 11 9 12 15 17 17 16 14 13 10 7 7 9 8 3 0 0 2 6 14 21 22 24 27 25 19 11 4 1 0 0 0 0 0 2 10 21 30 34 29 19 12
22 16 10 9 10 10 11 13 10 7 7 6 5 5 4 2 1 1 1 5 14 25 31 35 37 35 29 20 10 4 2 1 0 0 0 3 11 22 35 45 43 32 25
36 30 24 21 19 16 16 17 14 11 11 11 9 7 7 6 4 3 3 6 16 29 40 43 41 37 32 24 15 7 4 3 1 0 1 3 9 22 36 46 45 38 33
52 52 49 46 43 40 37 33 28 23 21 17 12 11 14 14 10 7 5 8 16 27 38 41 37 33 30 24 15 8 5 3 1 0 1 3 9 20 33 39 37 31 29
65 67 67 63 59 56 50 43 37 32 27 23 16 14 19 20 17 12 8 8 12 18 26 29 27 25 24 20 15 9 5 3 1 0 1 2 6 15 25 29 28 24 22
66 67 66 61 56 51 44 36 31 28 26 23 18 14 18 22 20 15 10 7 7 10 13 15 15 15 15 14 12 8 6 4 2 1 1 1 3 8 15 19 21 20 16
54 54 53 50 45 39 32 26 22 20 19 17 13 11 14 18 17 12 7 4 4 5 6 6 7 8 9 8 7 7 5 4 2 1 1 1 1 3 7 11 14 13 11
39 40 39 38 34 30 26 21 16 14 13 11 8 7 9 11 11 6 3 1 1 1 2 3 3 3 5 5 4 4 3 3 3 1 0 0 0 0 2 5 7 7 6
27 29 29 28 26 24 21 17 12 9 8 8 6 4 4 5 5 3 1 0 0 0 1 1 1 1 1 2 1 1 1 1 1 0 0 0 0 0 0 1 3 3 4
21 22 21 19 17 16 14 11 7 4 4 4 3 3 2 2 2 1 0 0 0 0 0 0 0 0 0 0 0 0 0 0 0 0 0 0 0 0 0 0 0 1 1
15 14 11 9 7 6 5 3 2 1 1 1 1 1 1 0 0 0 0 0 0 0 0 0 0 0 0 0 0 0 0 0 0 0 0 0 0 0 0 0 0 0 0
6 5 3 2 1 1 0 1 1 0 0 0 0 0 0 0 0 0 0 0 0 0 0 0 0 0 0 0 0 0 0 0 0 0 0 0 0 0 0 0 0 0 1
1 1 1 1 1 1 1 2 1 0 0 0 0 0 0 0 0 0 0 0 0 0 0 0 0 0 0 0 0 0 0 0 0 0 0 0 0 0 0 0 0 1 1
1 1 2 2 2 3 3 3 2 0 0 0 0 0 0 0 0 0 0 0 0 0 0 0 0 0 0 0 0 0 0 0 0 0 0 0 0 0 0 0 1 1 1
0 1 3 3 3 4 5 4 2 1 0 0 0 0 0 0 0 0 0 0 0 0 0 0 0 0 0 0 0 0 0 0 0 0 0 0 0 0 0 0 1 0 0

GEFSSE_con_prob3kmehi_078.txt.gz
EHI
9 13 26 44 61 73 81 85 87 89 91 92 92 88 77 64 49 30 12 3 1 0 0 0 0 0 0 0 0 0 0 1 1 1 0 0 0 0 0 0 0 0 0
15 16 29 47 63 71 76 80 82 83 85 86 86 80 70 57 42 24 9 1 0 0 0 0 0 0 0 0 0 0 0 0 0 0 0 0 0 0 0 0 0 0 0
22 18 27 49 64 67 68 71 71 69 69 69 69 64 53 41 28 14 4 0 0 0 0 0 0 0 0 0 0 0 0 0 0 0 0 0 0 0 0 0 0 0 0
27 20 27 51 66 66 63 60 56 51 46 45 46 42 33 22 14 7 1 0 0 0 0 0 0 0 0 0 0 0 0 0 0 0 0 0 0 0 0 0 0 0 0
30 25 32 55 70 68 62 54 45 35 29 27 26 22 16 9 5 2 0 0 0 0 0 0 0 0 0 0 0 0 0 0 0 0 0 0 0 0 0 0 0 0 0
34 29 36 57 71 71 64 53 40 28 21 19 16 11 6 2 1 0 0 0 0 0 0 0 0 0 0 0 0 0 0 0 0 0 0 0 0 0 0 0 0 0 0
41 33 37 55 69 72 68 56 40 27 19 15 12 7 3 1 0 0 0 0 0 0 0 0 0 0 0 0 0 0 0 0 0 0 0 0 0 0 0 0 0 0 0
46 37 35 47 59 66 67 57 42 28 19 14 11 7 3 1 0 0 0 1 0 0 0 0 0 0 0 0 0 0 0 0 0 0 0 0 0 0 0 0 0 0 0
41 37 32 35 42 51 57 55 44 30 21 17 13 9 5 2 1 0 0 0 0 0 0 0 0 0 0 0 0 0 0 0 0 0 0 0 0 1 1 0 0 0 0
34 31 29 29 32 37 43 47 44 34 25 19 14 10 5 2 1 0 0 0 0 0 0 0 0 0 0 0 0 0 0 0 0 0 0 0 1 2 2 1 0 0 0
27 25 26 28 29 29 31 35 37 33 26 19 12 9 5 2 0 0 0 0 0 0 0 0 0 1 1 1 0 0 0 0 0 0 0 0 1 2 3 2 1 1 0
20 19 20 23 25 26 26 26 27 26 24 17 10 7 7 5 3 2 1 0 0 0 0 1 1 2 3 3 2 1 1 0 0 0 0 0 1 2 3 3 3 3 2
17 15 14 16 19 22 22 20 20 20 19 15 10 7 9 9 7 6 5 3 2 2 2 3 3 4 7 8 5 2 1 0 0 0 0 0 0 1 2 3 4 5 5
19 15 12 14 17 18 18 17 17 17 16 13 10 9 11 10 9 9 7 5 3 3 4 4 4 6 10 11 7 3 1 0 0 0 0 0 0 0 1 1 3 6 7
19 17 13 12 13 12 13 14 14 14 13 10 9 11 12 11 11 9 6 4 2 2 3 4 4 7 11 11 9 4 2 1 1 0 0 0 0 0 0 0 2 5 7
21 20 16 12 9 8 10 11 10 9 8 7 8 9 10 11 12 10 6 2 0 1 2 3 3 6 9 9 8 6 4 3 2 2 2 1 0 0 0 0 0 2 4
23 21 18 13 10 8 8 8 7 5 4 5 6 7 7 8 9 9 6 2 1 1 2 1 2 4 6 5 4 5 5 4 3 3 3 2 1 1 1 0 0 0 1
21 18 15 13 11 9 8 6 4 2 1 3 4 4 3 4 5 6 4 2 1 1 1 0 1 3 3 2 2 2 3 4 5 4 3 1 1 1 1 0 0 0 0
17 15 13 12 11 10 8 6 3 1 0 1 2 1 1 2 3 3 1 1 0 0 0 0 0 1 1 1 1 0 1 3 4 3 1 0 0 1 1 0 0 1 1
11 11 12 12 12 10 8 5 2 0 0 0 0 0 1 2 2 1 0 0 0 0 0 0 0 0 0 0 0 0 0 1 2 1 0 0 0 0 0 0 0 0 0
8 8 9 9 8 7 4 2 1 0 0 0 0 0 1 1 0 0 0 0 0 0 0 0 0 0 0 0 0 0 0 0 0 0 0 0 0 0 0 0 0 0 0
6 6 5 4 3 2 1 0 0 0 0 0 0 0 0 0 0 0 0 0 0 0 0 0 0 0 0 0 0 0 0 0 0 0 0 0 0 0 0 0 0 0 0
3 3 2 1 0 0 0 0 0 0 0 0 0 0 0 0 0 0 0 0 0 0 0 0 0 0 0 0 0 0 0 0 0 0 0 0 0 0 0 0 0 0 0
1 1 1 0 0 0 0 0 0 0 0 0 0 0 0 0 0 0 0 0 0 0 0 0 0 0 0 0 0 0 0 0 0 0 0 0 0 0 0 0 0 0 0
0 0 0 0 0 0 0 0 0 0 0 0 0 0 0 0 0 0 0 0 0 0 0 0 0 0 0 0 0 0 0 0 0 0 0 0 0 0 0 0 0 0 0
0 0 0 0 0 0 0 0 0 0 0 0 0 0 0 0 0 0 0 0 0 0 0 0 0 0 0 0 0 0 0 0 0 0 0 0 0 0 0 0 0 0 0